FENGYUN 1C DEB, 29856

Orbit data source: Space-Track

FENGYUN 1C DEB, 29856 is space debris in SSO originally from a launch on Mon, 10 May 1999 UTC launched from the Taiyaun Space Center, China (TSC). Fengyun 1C debris stems from the Chinese weather satellite Fengyun-1C, which was intentionally destroyed by a Chinese anti-satellite missile in 2007. This event dramatically increased the amount of space debris, with thousands of trackable fragments posing hazards to satellites and human spaceflight. The Fengyun 1C debris cloud has become a focal point in discussions about space sustainability and the need for international regulations to prevent the creation of new debris.

Loading next visibility...
Identifier
29856, 1999-025FA
Orbit
SSO
Country
Flag of CNCN / PRC
Related business
Manufacturer
Unknown
Mission
Spacecraft
Bus & Motor
Unknown
Mass
Unknown
Launch date (UTC)
1999-05-10 (27 years ago)
Launch vehicle
Unknown
Launch site
Taiyaun Space Center, China (TSC)
Object type
Payload
Rocket body
Debris
Shape & HBR
Unknown shape, 0.1 m
Radar Cross Section
Small (<0.1 m²)

Expand to show TLE details & history
Last TLE update: 11 hours ago

TLE from 11 hours ago
0 FENGYUN 1C DEB
1 29856U 99025FA  25354.72919507  .00009550  00000-0  16736-2 0  9998
2 29856  98.6890  88.9214 0262339 273.6948 243.7490 14.47944434964909
Epoch: 2025-12-20T17:30Z
TLE epoch observation values (Epoch: 2025-12-20T17:30:02.454Z)
Latitude
24.93202°
Longitude
-79.0883°
Altitude
821.808 km
Speed
7.399 km/s
True Right ascension
18h 11m 53s
True Declination
24° 48' 07"
Sunlit
Object was in daylight at epoch
Visualization orbit readout
Latitude
Unknown
Longitude
Unknown
Altitude
Unknown
Speed
Unknown
Apparent Right ascension
Unknown
Apparent Declination
Unknown
Sunlit
N/A
Visualization observer readout
Local Sidereal Time
03:27:09
Azimuth
Unknown
Elevation
Unknown
Doppler factor
Unknown
Orbital elements
Apogee altitude
915.948 km
Perigee altitude
543.027 km
Semi-major axis
7,107.625 km
Eccentricity
0.02623
Inclination
98.689°
RAAN
88.9214°
Arg. of periapsis
273.6948°
True anomaly
241.09238°
Mean anomaly
243.749°
Eccentric anomaly
242.41675°
Mean motion
3.62207 °/min
Orbital period
99.39 mins
BSTAR
0.0016736
Loading maneuver chart data...
Computing Atmospheric mass density...

Documentation

Showing up to 5 results
|